Location: Delmar
(42.6220°N, 73.8326°W)
Time: 10:11:45
(UTC+00:00)

Okean O Rocket - Pass Details

Date: 29 October 2020
Orbit: 622 x 645 km, 98.2° (Epoch: 23 November)

Event Time Altitude Azimuth Distance (km) Brightness Sun altitude
Rises 22:13:07 0° 162° (SSE) 2,906 5.0 -4.7°
Reaches altitude 10° 22:15:18 10° 161° (SSE) 2,000 4.1 -5.1°
Maximum altitude 22:19:39 79° 76° (ENE) 643 1.6 -5.8°
Drops below altitude 10° 22:24:01 10° 349° (N) 2,006 4.2 -6.6°
Sets 22:26:13 0° 349° (NNW) 2,915 5.0 -7.0°
